Vorticity
3 1 1 3 5 4 4 3 3 2 4 4 4 6 8 12 12 11 7 8 10 8 5 3 4 5 7 7 4 4 6 3
3 2 3 3 4 4 3 3 4 5 3 4 4 4 3 4 5 7 9 9 7 7 10 9 9 9 8 5 4 6 7 4
5 2 1 4 3 2 3 2 4 4 5 4 4 4 4 3 4 4 5 5 5 6 6 7 7 6 7 5 4 7 4 7
1 3 3 2 3 2 2 2 1 1 4 5 5 6 6 5 5 5 6 6 7 7 6 5 6 6 5 6 6 7 6 10
6 4 4 4 3 3 3 2 2 2 2 3 4 6 7 8 6 6 6 7 8 7 6 5 6 5 6 5 5 7 7 8
2 7 15 11 8 8 5 3 3 3 3 3 3 5 6 9 9 5 6 5 6 7 5 3 4 4 5 5 6 9 6 11
12 7 -2 8 17 9 9 7 6 4 3 3 2 2 4 8 9 7 6 6 7 2 1 1 3 3 4 5 7 6 8 6
4 3 2 3 3 7 11 6 10 6 6 5 2 3 4 5 6 10 9 6 4 9 7 7 6 3 2 3 5 5 8 7
10 14 17 17 13 9 11 7 17 7 13 4 2 1 2 6 6 2 8 6 4 5 5 6 3 4 4 3 2 6 7 3
9 8 6 3 12 8 8 8 13 6 22 10 2 1 0 2 7 7 4 6 3 12 8 7 -1 5 4 3 2 1 7 7
5 5 4 4 7 7 3 4 4 13 4 19 -9 20 -0 1 4 4 5 5 5 2 -1 4 0 5 8 9 8 3 2 8
10 8 7 7 5 6 6 8 10 11 16 -8 9 2 16 8 -1 4 7 3 2 7 -0 2 1 5 3 5 3 4 7 5
9 13 14 14 11 8 8 6 8 7 11 9 -4 -5 13 8 0 -1 5 8 4 3 4 2 2 2 5 3 3 6 0 1
11 8 6 8 10 13 15 15 11 10 10 4 10 4 5 11 -0 22 -6 1 11 4 3 3 9 3 5 2 5 4 5 2
4 2 2 -1 -1 4 5 4 4 12 13 11 9 7 13 9 11 5 0 5 6 2 9 -3 -1 10 -9 -7 3 1 -0 3
3 7 12 8 6 7 5 4 8 10 5 12 13 8 7 12 9 11 13 9 5 11 -4 -2 3 28 -4 -5 7 1 7 10
6 0 6 9 10 11 14 12 7 17 6 13 14 13 11 10 11 7 7 7 13 9 -6 -7 26 2 -7 10 -1 3 5 6
10 10 10 5 5 6 9 11 13 19 17 16 -1 13 12 9 11 8 7 8 6 12 11 7 4 7 6 6 12 21 0 -15
13 15 14 14 12 11 9 8 8 9 14 23 16 9 4 5 8 10 8 10 9 7 9 10 8 2 6 5 13 12 8 62
6 5 7 8 9 9 9 10 9 5 1 12 17 19 15 13 8 6 7 6 13 9 10 6 7 7 5 1 -1 12 15 6
Height
5857 5855 5855 5854 5853 5853 5853 5853 5852 5851 5850 5849 5848 5847 5847 5847 5847 5846 5846 5846 5845 5843 5841 5839 5837 5835 5833 5831 5828 5826 5824 5821
5852 5850 5849 5849 5848 5847 5847 5847 5847 5846 5846 5845 5844 5843 5843 5842 5841 5841 5840 5839 5838 5837 5836 5834 5832 5831 5829 5827 5825 5823 5821 5818
5845 5844 5842 5843 5842 5841 5841 5840 5841 5841 5840 5839 5838 5838 5837 5837 5837 5836 5835 5834 5833 5832 5831 5829 5828 5827 5825 5823 5821 5820 5817 5815
5837 5838 5837 5835 5836 5835 5834 5833 5833 5833 5834 5833 5833 5832 5831 5830 5831 5830 5830 5829 5829 5828 5827 5825 5824 5822 5821 5819 5817 5816 5814 5812
5836 5834 5830 5828 5827 5828 5827 5827 5827 5827 5827 5826 5827 5827 5826 5825 5824 5824 5824 5823 5823 5823 5821 5820 5819 5817 5816 5815 5814 5812 5811 5808
5826 5831 5826 5820 5820 5820 5820 5820 5819 5819 5818 5819 5817 5818 5819 5819 5818 5818 5817 5817 5817 5817 5817 5816 5815 5812 5811 5810 5809 5809 5806 5804
5818 5820 5820 5816 5812 5814 5815 5814 5810 5809 5809 5809 5810 5810 5811 5813 5813 5811 5811 5811 5812 5811 5811 5810 5810 5809 5807 5804 5803 5804 5803 5800
5812 5811 5810 5809 5808 5805 5805 5803 5802 5800 5800 5800 5800 5802 5803 5805 5807 5806 5805 5805 5805 5805 5804 5804 5803 5803 5801 5800 5799 5798 5799 5797
5800 5799 5797 5796 5797 5795 5795 5793 5791 5788 5790 5791 5791 5793 5794 5797 5798 5800 5800 5797 5798 5798 5798 5798 5797 5796 5794 5792 5792 5791 5793 5793
5788 5788 5787 5787 5786 5786 5784 5782 5781 5779 5777 5779 5781 5782 5783 5786 5789 5789 5792 5791 5790 5790 5789 5791 5791 5790 5789 5787 5785 5785 5785 5788
5777 5776 5775 5774 5775 5775 5776 5773 5769 5768 5767 5769 5767 5771 5772 5773 5779 5779 5780 5781 5781 5782 5782 5782 5782 5783 5782 5782 5779 5777 5779 5780
5766 5764 5762 5760 5761 5760 5761 5762 5758 5757 5756 5759 5760 5760 5759 5762 5763 5768 5768 5768 5769 5771 5773 5772 5771 5773 5772 5773 5772 5770 5770 5774
5753 5751 5750 5750 5748 5746 5745 5745 5745 5743 5744 5747 5748 5745 5750 5750 5751 5756 5755 5757 5757 5759 5760 5763 5763 5764 5760 5761 5761 5762 5762 5766
5738 5737 5736 5734 5733 5733 5733 5731 5728 5726 5728 5730 5736 5736 5735 5736 5741 5738 5739 5746 5748 5749 5749 5751 5750 5751 5749 5749 5750 5750 5755 5757
5727 5724 5722 5719 5718 5717 5717 5717 5716 5714 5710 5713 5714 5717 5721 5723 5726 5727 5729 5732 5737 5735 5736 5738 5740 5739 5740 5742 5738 5737 5743 5745
5712 5709 5706 5703 5700 5699 5699 5700 5701 5698 5698 5696 5698 5701 5706 5708 5707 5713 5716 5719 5723 5721 5721 5725 5725 5720 5729 5732 5728 5728 5729 5731
5693 5690 5687 5684 5680 5679 5678 5678 5679 5680 5679 5680 5681 5683 5687 5692 5692 5694 5698 5705 5707 5710 5710 5710 5713 5714 5717 5719 5717 5716 5717 5722
5672 5669 5665 5662 5660 5656 5654 5654 5654 5656 5658 5660 5661 5664 5668 5673 5674 5676 5680 5687 5689 5695 5697 5698 5701 5702 5703 5702 5702 5703 5707 5709
5653 5649 5645 5642 5639 5635 5631 5631 5631 5631 5632 5636 5638 5640 5644 5652 5657 5659 5664 5668 5673 5675 5678 5680 5685 5687 5690 5691 5691 5693 5697 5691
5637 5630 5624 5619 5616 5613 5608 5605 5604 5606 5609 5612 5615 5617 5621 5627 5634 5639 5645 5649 5657 5658 5662 5665 5669 5672 5677 5678 5678 5681 5686 5686